www.pogodaiklimat.ru

Погода и климат >> Архив погоды >> Россия >> Камчатский край >> Мыс Лопатка


ПОГОДА на Мысе Лопатка

  • Прогноз погоды на Мысе Лопатка
  • Монитор погоды на Мысе Лопатка
  • Климат города

АРХИВ ПОГОДЫ на Мысе Лопатка

Время (UTC), дата Ветер
(напр.,м/с)
 
Видим.   Явления Облачность Т
(С)
Тd
(С)
f
(%)
Тe
(С)
Тes
(С)
Комфортность P
(гПа)
Po
(гПа)
Тmin
(С)
Tmax
(С)
R
(мм)
R24
(мм)
S
(см)
09 13.08 СЗ 11-12
{16}
2000 м дымка 10/10 300 м
[St]
+9.7 +9.5 99 +5 +5 1015.0 1008.9 +11.9
12 13.08 З 11-13
{15}
2000 м дымка 10/10 300 м
[St]
+10.2 +10.0 99 +5 +5 1014.5 1008.4
15 13.08 СЗ 13-16
{17}
2000 м дымка 10/10 300 м
[St]
+10.8 +10.6 99 +6 +6 1013.6 1007.5
18 13.08 СЗ 13-16
{17}
2000 м дымка 10/10 300 м
[St]
+10.8 +10.6 99 +6 +6 1013.4 1007.3
21 13.08 СЗ 11-14
{17}
2000 м дымка 10/10 300 м
[St]
+10.8 +10.6 99 +6 +6 1014.0 1007.9 +9.7
00 14.08 СЗ 11-14
{14}
2000 м дымка 10/10 300 м
[St]
+10.5 +10.3 99 +6 +6 1014.0 1007.9
03 14.08 СЗ 10-13
{14}
2000 м дымка 10/10 300 м
[St]
+11.9 +11.7 99 +8 +8 1014.0 1007.9
06 14.08 СЗ 10-12
{13}
2000 м дымка 10/10 300 м
[St]
+12.1 +11.5 96 +8 +8 1014.5 1008.5
09 14.08 СЗ 9-12
{12}
4000 м дымка 10/10 300 м
[St]
+10.4 +10.0 97 +6 +6 1015.2 1009.1 +12.5
12 14.08 СЗ 8-12
{12}
4000 м дымка 10/10 300 м
[St]
+10.6 +10.3 98 +7 +7 1016.2 1010.1
15 14.08 СЗ 5
{11}
4000 м дымка 10/10 300 м
[St]
+11.1 +10.9 99 +8 +8 1016.5 1010.4
21 14.08 В 9-12
{12}
4000 м дымка 10/10 300 м
[St]
+13.1 +12.8 98 +10 +10 1017.7 1011.6 +10.4
00 15.08 СЗ 2 4000 м дымка 10/10 300 м
[St]
+11.0 +10.8 99 +10 +10 1017.1 1011.0
03 15.08 В 8-12
{16}
2000 м дымка 10/10 300 м
[St]
+12.2 +11.9 98 +9 +9 1018.9 1012.8
06 15.08 С 14-19
{19}
4000 м дымка 10/10 300 м
[St]
+11.9 +11.3 96 +7 +7 1018.5 1012.5
09 15.08 В 8-13
{20}
2000 м дымка 10/10 300 м
[St]
+11.4 +10.7 95 +8 +8 1020.0 1013.9 +14.0
12 15.08 В 10-13
{15}
2000 м дымка 10/10 300 м
[St]
+11.2 +10.9 98 +7 +7 1020.8 1014.7
15 15.08 В 10-14
{16}
2000 м дымка 10/10 300 м
[St]
+11.4 +11.2 99 +7 +7 1021.0 1014.0
18 15.08 В 8-10
{16}
4000 м дымка 10/10 600 м
[St]
+10.8 +10.6 99 +7 +7 1021.1 1015.0
21 15.08 В 8-10
{12}
4000 м дымка 10/10 300 м
[St]
+10.5 +10.3 99 +6 +6 1021.9 1015.8 +10.5
00 16.08 В 9-12
{12}
4000 м дымка 10/10 300 м
[St]
+11.2 +10.6 96 +7 +7 1022.6 1016.5
03 16.08 В 7
{12}
20 км 10/6 300 м
[St Ci fib]
+12.2 +10.7 91 +9 +10 1022.3 1016.2
06 16.08 В 9-11
{11}
20 км 10/0 300 м
[Ci fib]
+11.7 +10.1 90 +8 +8 1022.1 1016.4
09 16.08 В 6
{11}
20 км 10/8 300 м
[St Ci fib]
+11.4 +10.5 94 +8 +8 1022.5 1016.4 +12.7
12 16.08 В 6 20 км 10/10 300 м
[St]
+11.7 +10.7 94 +9 +9 1022.6 1016.5
15 16.08 В 7
{10}
20 км 10/10 300 м
[St]
+11.7 +10.5 92 +8 +8 1022.2 1016.1
18 16.08 В 6 20 км 10/10 300 м
[St]
+10.9 +10.2 95 +8 +8 1021.9 1015.0
21 16.08 В 7
{10}
20 км 10/10 300 м
[St]
+11.6 +10.9 95 +8 +8 1022.0 1015.9 +10.7
00 17.08 В 6 20 км 10/10 300 м
[St]
+12.0 +11.1 94 +9 +9 1021.7 1015.6
03 17.08 В 4 20 км 10/10 300 м
[St]
+13.1 +11.7 91 +11 +11 1020.8 1014.7
06 17.08 В 3 20 км 10/5 300 м
[St Ci fib]
+12.7 +11.0 89 +11 +13 1020.1 1014.0
09 17.08 СЗ 2 20 км 10/10 300 м
[St]
+10.5 +9.8 95 +9 +9 1019.9 1013.7 +13.4
12 17.08 З 3-18
{18}
20 км 6/6 300 м
[St]
+12.4 +9.2 81 +8 +8 1011.2 1009.5
15 17.08 З 5 20 км 10/10 300 м
[St]
+10.4 +10.0 97 +7 +7 1018.5 1012.3
18 17.08 СЗ 6 2000 м дымка 10/10 300 м
[St]
+10.5 +10.2 98 +7 +7 1017.8 1011.7
21 17.08 СЗ 8-10
{11}
4000 м дымка 10/10 300 м
[St]
+10.8 +10.4 97 +7 +7 1017.3 1011.2 +10.2
00 18.08 СЗ 9-11
{11}
4000 м дымка 10/10 300 м
[St]
+12.2 +11.3 94 +9 +9 1017.2 1011.1
03 18.08 СЗ 9-12
{13}
4000 м дымка 10/10 300 м
[St]
+12.4 +11.2 92 +9 +9 1016.4 1010.4
06 18.08 З 11-13
{14}
4000 м дымка 10/10 300 м
[St]
+11.6 +11.1 97 +7 +7 1015.5 1009.5
09 18.08 СЗ 10-12
{15}
4000 м дымка 10/8 300 м
[St Ci fib]
+11.6 +11.2 97 +8 +8 1015.7 1009.6 +12.7
12 18.08 СЗ 10-12
{13}
4000 м дымка 10/8 300 м
[St Ci fib]
+11.3 +11.0 98 +7 +7 1015.7 1009.6
15 18.08 СЗ 10-12
{13}
4000 м дымка 8/5 300 м
[St Ci fib]
+11.3 +10.9 97 +7 +7 1015.4 1009.3
18 18.08 СЗ 11-14
{14}
4000 м дымка 8/5 300 м
[St Ci fib]
+11.4 +9.9 90 +7 +7 1014.7 1008.6
21 18.08 СЗ 10-12
{15}
20 км 8/5 300 м
[St Ci fib]
+11.6 +10.5 93 +8 +8 1015.4 1009.3 +10.9
00 19.08 СЗ 10-13
{13}
20 км 8/4 300 м
[St Ci fib]
+13.2 +11.3 88 +10 +10 1015.0 1009.0
03 19.08 СЗ 10-12
{13}
20 км 8/5 300 м
[St Ci fib]
+12.9 +11.1 89 +10 +10 1014.3 1008.3
06 19.08 СЗ 11-13
{14}
20 км 8/5 300 м
[St Ac trans Ci fib]
+12.7 +11.1 90 +9 +9 1014.1 1008.1
09 19.08 СЗ 11-13
{15}
20 км 8/6 300 м
[St Ac trans Ci fib]
+11.4 +10.7 95 +7 +7 1013.9 1007.9 +13.9
12 19.08 СЗ 9-12
{13}
20 км 8/5 300 м
[St Ac trans Ci fib]
+11.1 +10.6 97 +7 +7 1014.2 1008.1
15 19.08 СЗ 9-10
{12}
20 км 8/5 300 м
[St Ac trans Ci fib]
+11.1 +10.6 97 +7 +7 1013.9 1007.9
18 19.08 СЗ 9-10
{12}
20 км 10/10 300 м
[St]
+11.0 +10.4 96 +7 +7 1014.1 1008.1
21 19.08 С 4
{11}
20 км 10/10 300 м
[St]
+11.2 +10.6 96 +9 +9 1014.5 1008.5 +10.8
00 20.08 СЗ 5 20 км 10/10 300 м
[St]
+11.6 +11.0 96 +9 +9 1015.1 1009.0
03 20.08 СЗ 4 20 км 10/10 300 м
[St]
+12.3 +10.9 91 +10 +10 1014.9 1008.9
06 20.08 СЗ 6 20 км 8/8 300 м
[St]
+12.4 +10.9 91 +10 +10 1014.9 1008.8

 

Местоположение метеостанции Мыс Лопатка (Камчатский край, Россия): широта 50.87 долгота 156.60 высота над уровнем моря 50 м.

В архиве по умолчанию представлена погода на Мысе Лопатка за последнюю неделю. Архивные данные за месяц целиком и за предыдущие месяцы, начиная с января 2011 года, Вы можете получить, выбрав интересующий диапазон дат из раскрывающегося списка и нажав кнопку "Ввод!".

Внимание! Время в таблицах - всемирное. Для получения местного времени необходимо прибавить поправку, которая на Мысе Лопатка равна 12 ч.

Смотрите также архив погоды в соседних городах и на ближайших метеорологических станциях:

Погода в Северо-Курильске (Сахалинская область, Россия) (41 км)
Погода в Озерной (Камчатский край, Россия) (69 км)
Погода в Водопадной (Камчатский край, Россия) (144 км)
Погода в Большерецке (Камчатский край, Россия) (219 км)
Погода в Начиках (Камчатский край, Россия) (261 км)
Погода в Петропавловск-Камчатском (Камчатский край, Россия) (261 км)
Погода в Петропавловском Маяке (Камчатский край, Россия) (266 км)
Погода в Сосновке (Камчатский край, Россия) (272 км)
Погода в Петропавловск-Камч. 2 (Камчатский край, Россия) (278 км)
Погода в Пущино (Камчатский край, Россия) (380 км)

Пояснения к столбцам:

Ветер - указаны скорость ветра в м/с - средняя за 10 мин, порывы в срок и между сроками (в фигурных скобках) и направление, откуда дует ветер: С - северный, СВ - северо-восточный, В - восточный, ЮВ - юго-восточный, Ю - южный, ЮЗ - юго-западный, З - западный, СЗ - северо-западный.
Видимость - горизонтальная дальность видимости в метрах или километрах. При видимости от 1 до 10 км при отсутствии осадков обычно наблюдается дымка, при ухудшении видимости до 1 км и менее - туман. В сухую погоду видимость может ухудшаться дымом, пылью или мглою.
Явления - указаны атмосферные явления, наблюдавшиеся в срок или в последний час перед сроком; фигурными скобками обозначены явления, наблюдавшиеся между сроками (за 1-3 часа до срока); квадратными скобками обозначены град или гололедные отложения с указанием их диаметра в мм.
Облачность - указаны через наклонную черту общая и нижняя облачность в баллах и высота нижней границы облаков в метрах; квадратными скобками обозначены формы облаков: Ci - перистые, Cs - перисто-слоистые, Cc - перисто-кучевые, Ac - высококучевые, As - высокослоистые, Sc - слоисто-кучевые, Ns - слоисто-дождевые, Cu - кучевые, Cb - кучево-дождевые. Подробнее классификацию облаков см. в Атласе облаков (PDF).
T - Температура воздуха - температура, измеренная на высоте 2 м над землей.
Td - Температура точки росы - температура, при понижении до которой содержащийся в воздухе водяной пар достигнет насыщения.
f - Относительная влажность воздуха - влажноcть воздуха, измеренная на высоте 2 м над землей.
Te - Эффективная температура - температура, которую ощущает одетый по сезону человек в тени. Характеристика душности погоды. При расчете учитывается влияние влажности воздуха и скорости ветра на теплоощущения человека.
Tes - Эффективная температура на солнце - температура, которую ощущает человек, с поправкой на солнечный нагрев. Характеристика знойности погоды. Зависит от высоты солнца над горизонтом, облачности и скорости ветра. Ночью, в пасмурную погоду, а также при ветре 12 м/с и более поправка равна нулю.
P - Атмосферное давление - приведенное к уровню моря атмосферное давление.
Po - Атмосферное давление - измеренное на уровне метеостанции атмосферное давление.
Tmin - Минимальная температура - минимум температуры воздуха на высоте 2 м над землей.
Tmax - Максимальная температура - максимум температуры воздуха на высоте 2 м над землей.
R - Количество осадков - Количество выпавших осадков за период времени, мм. При наведении курсора мыши на число - период времени, за который выпало указанное количество осадков.
R24 - Количество осадков - Количество выпавших осадков за 24 часа, мм.
S - Снежный покров - Высота снежного покрова, см. При наведении курсора мыши на число - состояние снежного покрова и степень покрытия местности в баллах.